When you browse on this site, cookies collect data to enhance your experience and personalize the content and advertising you see.
Visit our Privacy Policy to learn more. By continuing to use the site, you agree to this use of cookies and data.
EN

Hourly Weather Alges

Today, 7 August, Friday

Time Temperature Precipitation Wind Pressure Humidity
00:00 +20°C° 0 mm 3 mps 759 mmHg 80%
01:00 +20°C° 0 mm 3 mps 759 mmHg 82%
02:00 +20°C° 0 mm 3 mps 758 mmHg 83%
03:00 +19°C° 0 mm 3 mps 759 mmHg 84%
04:00 +19°C° 0 mm 3 mps 759 mmHg 85%
05:00 +19°C° 0 mm 3 mps 760 mmHg 90%
06:00 +21°C° 0 mm 3 mps 760 mmHg 80%
07:00 +24°C° 0 mm 3 mps 760 mmHg 70%
08:00 +26°C° 0 mm 4 mps 760 mmHg 59%
09:00 +29°C° 0 mm 4 mps 761 mmHg 52%
10:00 +32°C° 0 mm 4 mps 761 mmHg 45%
11:00 +34°C° 0 mm 3 mps 761 mmHg 41%
12:00 +34°C° 0 mm 4 mps 761 mmHg 41%
13:00 +34°C° 0 mm 5 mps 761 mmHg 41%
14:00 +33°C° 0 mm 6 mps 760 mmHg 42%
15:00 +32°C° 0 mm 6 mps 760 mmHg 45%
16:00 +30°C° 0 mm 7 mps 760 mmHg 47%
17:00 +28°C° 0 mm 7 mps 760 mmHg 50%
18:00 +26°C° 0 mm 7 mps 761 mmHg 60%
19:00 +23°C° 0 mm 6 mps 761 mmHg 70%
20:00 +21°C° 0 mm 6 mps 761 mmHg 80%
21:00 +21°C° 0 mm 5 mps 761 mmHg 83%
22:00 +20°C° 0 mm 5 mps 762 mmHg 86%
23:00 +20°C° 0 mm 4 mps 762 mmHg 89%

Tomorrow, 8 August, Saturday

Time Temperature Precipitation Wind Pressure Humidity
00:00 +20°C° 0 mm 4 mps 762 mmHg 90%
01:00 +19°C° 0 mm 4 mps 762 mmHg 91%
02:00 +19°C° 0 mm 3 mps 762 mmHg 92%
03:00 +19°C° 0 mm 3 mps 762 mmHg 91%
04:00 +19°C° 0 mm 3 mps 762 mmHg 91%
05:00 +20°C° 0 mm 3 mps 762 mmHg 90%
06:00 +21°C° 0 mm 3 mps 762 mmHg 82%
07:00 +24°C° 0 mm 3 mps 762 mmHg 73%
08:00 +25°C° 0 mm 2 mps 762 mmHg 65%
09:00 +27°C° 0 mm 3 mps 762 mmHg 57%
10:00 +29°C° 0 mm 4 mps 762 mmHg 49%
11:00 +32°C° 0 mm 4 mps 762 mmHg 42%
12:00 +33°C° 0 mm 5 mps 762 mmHg 41%
13:00 +33°C° 0 mm 6 mps 761 mmHg 41%
14:00 +33°C° 0 mm 6 mps 761 mmHg 41%
15:00 +30°C° 0 mm 6 mps 761 mmHg 46%
16:00 +29°C° 0 mm 7 mps 761 mmHg 51%
17:00 +27°C° 0 mm 7 mps 761 mmHg 55%
18:00 +24°C° 0 mm 6 mps 761 mmHg 65%
19:00 +22°C° 0 mm 6 mps 761 mmHg 74%
20:00 +20°C° 0 mm 5 mps 761 mmHg 84%
21:00 +20°C° 0 mm 5 mps 761 mmHg 85%
22:00 +20°C° 0 mm 4 mps 761 mmHg 87%
23:00 +19°C° 0 mm 4 mps 761 mmHg 89%

Day after tomorrow, 9 August, Sunday

Time Temperature Precipitation Wind Pressure Humidity
00:00 +19°C° 0 mm 4 mps 761 mmHg 89%
01:00 +19°C° 0 mm 4 mps 760 mmHg 90%
02:00 +19°C° 0 mm 4 mps 760 mmHg 91%
03:00 +19°C° 0 mm 4 mps 760 mmHg 90%
04:00 +19°C° 0 mm 4 mps 760 mmHg 90%
05:00 +19°C° 0 mm 3 mps 760 mmHg 90%
06:00 +20°C° 0 mm 4 mps 760 mmHg 82%
07:00 +22°C° 0 mm 4 mps 760 mmHg 73%
08:00 +25°C° 0 mm 5 mps 760 mmHg 65%
09:00 +26°C° 0 mm 5 mps 760 mmHg 58%
10:00 +28°C° 0 mm 6 mps 760 mmHg 51%
11:00 +30°C° 0 mm 6 mps 760 mmHg 44%
12:00 +30°C° 0 mm 6 mps 760 mmHg 45%
13:00 +30°C° 0 mm 7 mps 760 mmHg 45%
14:00 +30°C° 0 mm 7 mps 759 mmHg 45%
15:00 +28°C° 0 mm 7 mps 759 mmHg 51%
16:00 +26°C° 0 mm 8 mps 759 mmHg 58%
17:00 +24°C° 0 mm 8 mps 759 mmHg 65%
18:00 +22°C° 0 mm 7 mps 759 mmHg 72%
19:00 +21°C° 0 mm 7 mps 759 mmHg 78%
20:00 +19°C° 0 mm 6 mps 760 mmHg 85%
21:00 +19°C° 0 mm 6 mps 760 mmHg 87%
22:00 +19°C° 0 mm 6 mps 760 mmHg 89%
23:00 +19°C° 0 mm 6 mps 759 mmHg 91%

10 August, Monday

Time Temperature Precipitation Wind Pressure Humidity
00:00 +19°C° 0 mm 5 mps 759 mmHg 91%
01:00 +19°C° 0 mm 5 mps 759 mmHg 92%
02:00 +19°C° 0 mm 5 mps 758 mmHg 92%
03:00 +19°C° 0 mm 5 mps 758 mmHg 91%
04:00 +19°C° 0 mm 5 mps 758 mmHg 91%
05:00 +19°C° 0 mm 5 mps 758 mmHg 90%
06:00 +20°C° 0 mm 5 mps 758 mmHg 82%
07:00 +22°C° 0 mm 6 mps 758 mmHg 75%
08:00 +23°C° 0 mm 6 mps 758 mmHg 67%
09:00 +26°C° 0 mm 6 mps 758 mmHg 61%
10:00 +27°C° 0 mm 6 mps 758 mmHg 56%
11:00 +28°C° 0 mm 6 mps 759 mmHg 51%
12:00 +28°C° 0 mm 7 mps 758 mmHg 51%
13:00 +28°C° 0 mm 7 mps 758 mmHg 51%
14:00 +28°C° 0 mm 8 mps 757 mmHg 51%
15:00 +27°C° 0 mm 8 mps 757 mmHg 55%
16:00 +26°C° 0 mm 8 mps 757 mmHg 60%
17:00 +24°C° 0 mm 8 mps 757 mmHg 64%
18:00 +22°C° 0 mm 7 mps 758 mmHg 72%
19:00 +21°C° 0 mm 7 mps 758 mmHg 80%
20:00 +19°C° 0 mm 6 mps 758 mmHg 87%
21:00 +19°C° 0 mm 6 mps 758 mmHg 89%
22:00 +19°C° 0 mm 5 mps 758 mmHg 90%
23:00 +17°C° 0 mm 5 mps 758 mmHg 92%

11 August, Tuesday

Time Temperature Precipitation Wind Pressure Humidity
00:00 +17°C° 0 mm 5 mps 758 mmHg 92%
01:00 +17°C° 0 mm 5 mps 758 mmHg 92%
02:00 +17°C° 0 mm 5 mps 758 mmHg 92%
03:00 +19°C° 0 mm 5 mps 758 mmHg 90%
04:00 +19°C° 0 mm 5 mps 758 mmHg 88%
05:00 +19°C° 0 mm 5 mps 758 mmHg 87%
06:00 +20°C° 0 mm 5 mps 758 mmHg 81%
07:00 +21°C° 0 mm 5 mps 758 mmHg 75%
08:00 +23°C° 0 mm 5 mps 759 mmHg 69%
09:00 +25°C° 0 mm 5 mps 759 mmHg 64%
10:00 +26°C° 0 mm 5 mps 759 mmHg 59%
11:00 +27°C° 0 mm 6 mps 759 mmHg 54%
12:00 +28°C° 0 mm 6 mps 759 mmHg 54%
13:00 +28°C° 0 mm 7 mps 758 mmHg 54%
14:00 +28°C° 0 mm 7 mps 758 mmHg 54%
15:00 +27°C° 0 mm 7 mps 758 mmHg 59%
16:00 +26°C° 0 mm 8 mps 758 mmHg 64%
17:00 +24°C° 0 mm 8 mps 759 mmHg 69%
18:00 +22°C° 0 mm 8 mps 759 mmHg 74%
19:00 +21°C° 0 mm 7 mps 759 mmHg 80%
20:00 +20°C° 0 mm 7 mps 759 mmHg 86%
21:00 +20°C° 0 mm 7 mps 760 mmHg 84%
22:00 +20°C° 0 mm 8 mps 760 mmHg 83%
23:00 +20°C° 0 mm 8 mps 760 mmHg 82%

12 August, Wednesday

Time Temperature Precipitation Wind Pressure Humidity
00:00 +20°C° 0 mm 7 mps 760 mmHg 82%
01:00 +20°C° 0 mm 7 mps 759 mmHg 82%
02:00 +20°C° 0 mm 7 mps 759 mmHg 83%
03:00 +20°C° 0 mm 7 mps 759 mmHg 82%
04:00 +20°C° 0 mm 7 mps 759 mmHg 81%
05:00 +20°C° 0 mm 7 mps 760 mmHg 81%
06:00 +21°C° 0 mm 7 mps 760 mmHg 76%
07:00 +22°C° 0 mm 7 mps 760 mmHg 70%
08:00 +23°C° 0 mm 7 mps 760 mmHg 65%
09:00 +24°C° 0 mm 7 mps 760 mmHg 59%
10:00 +27°C° 0 mm 8 mps 760 mmHg 53%
11:00 +28°C° 0 mm 8 mps 760 mmHg 47%
12:00 +28°C° 0 mm 8 mps 760 mmHg 47%
13:00 +28°C° 0 mm 9 mps 760 mmHg 48%
14:00 +28°C° 0 mm 9 mps 760 mmHg 48%
15:00 +27°C° 0 mm 9 mps 760 mmHg 52%
16:00 +26°C° 0 mm 9 mps 760 mmHg 57%
17:00 +23°C° 0 mm 9 mps 760 mmHg 61%
18:00 +22°C° 0 mm 8 mps 760 mmHg 68%
19:00 +21°C° 0 mm 7 mps 760 mmHg 75%
20:00 +19°C° 0 mm 6 mps 761 mmHg 81%
21:00 +19°C° 0 mm 6 mps 761 mmHg 82%
22:00 +19°C° 0 mm 6 mps 760 mmHg 83%
23:00 +19°C° 0 mm 6 mps 760 mmHg 84%
Show more